Time,TemperatureF,DewpointF,PressureIn,WindDirection,WindDirectionDegrees,WindSpeedMPH,WindSpeedGustMPH,Humidity,HourlyPrecipIn,Conditions,Clouds,dailyrainin,SoftwareType,DateUTC
2013-01-13 00:03:00,35.0,34.0,30.29,ENE,68,0.0,0.0,97,0.00,,,0.03,,2013-01-13 05:03:00,
2013-01-13 00:12:00,35.0,34.0,30.29,ENE,68,0.0,0.0,97,0.00,,,0.03,,2013-01-13 05:12:00,
2013-01-13 00:23:00,35.0,34.0,30.28,ENE,68,0.0,0.0,97,0.00,,,0.03,,2013-01-13 05:23:00,
2013-01-13 00:32:00,35.0,34.0,30.28,ENE,68,0.0,0.0,97,0.00,,,0.02,,2013-01-13 05:32:00,
2013-01-13 00:42:00,35.0,34.0,30.28,ENE,68,0.0,0.0,97,0.00,,,0.02,,2013-01-13 05:42:00,
2013-01-13 00:52:00,35.0,34.0,30.28,ENE,68,0.0,0.0,97,0.00,,,0.02,,2013-01-13 05:52:00,
2013-01-13 01:03:00,35.0,34.0,30.27,ENE,68,0.0,0.0,97,0.00,,,0.02,,2013-01-13 06:03:00,
2013-01-13 01:12:00,35.0,34.0,30.27,ENE,68,0.0,0.0,97,0.00,,,0.02,,2013-01-13 06:12:00,
2013-01-13 01:22:00,36.0,35.0,30.29,ENE,68,0.0,0.0,97,0.00,,,0.02,,2013-01-13 06:22:00,
2013-01-13 01:32:00,36.0,35.0,30.29,ENE,68,0.0,0.0,97,0.00,,,0.02,,2013-01-13 06:32:00,
2013-01-13 01:42:00,36.0,35.0,30.29,ENE,68,0.0,0.0,97,0.00,,,0.02,,2013-01-13 06:42:00,
2013-01-13 01:52:00,35.0,34.0,30.29,ENE,68,0.0,0.0,97,0.00,,,0.02,,2013-01-13 06:52:00,
2013-01-13 02:02:00,35.0,34.0,30.28,ENE,68,0.0,0.0,97,0.00,,,0.02,,2013-01-13 07:02:00,
2013-01-13 02:12:00,35.0,34.0,30.28,ENE,68,0.0,0.0,97,0.00,,,0.02,,2013-01-13 07:12:00,
2013-01-13 02:22:00,35.0,34.0,30.28,ENE,68,0.0,0.0,97,0.00,,,0.02,,2013-01-13 07:22:00,
2013-01-13 02:32:00,35.0,34.0,30.29,ENE,68,0.0,0.0,97,0.00,,,0.02,,2013-01-13 07:32:00,
2013-01-13 02:42:00,35.0,34.0,30.29,ENE,68,0.0,0.0,97,0.00,,,0.02,,2013-01-13 07:42:00,
2013-01-13 02:52:00,35.0,34.0,30.30,ENE,68,0.0,0.0,97,0.00,,,0.02,,2013-01-13 07:52:00,
2013-01-13 03:02:00,35.0,34.0,30.30,ENE,68,0.0,0.0,97,0.00,,,0.02,,2013-01-13 08:02:00,
2013-01-13 03:12:00,35.0,34.0,30.30,ENE,68,0.0,0.0,97,0.00,,,0.02,,2013-01-13 08:12:00,
2013-01-13 03:22:00,35.0,34.0,30.30,ENE,68,0.0,0.0,97,0.00,,,0.02,,2013-01-13 08:22:00,
2013-01-13 03:32:00,34.0,33.0,30.29,ENE,68,0.0,0.0,97,0.00,,,0.01,,2013-01-13 08:32:00,
2013-01-13 03:42:00,34.0,33.0,30.29,ENE,68,0.0,0.0,97,0.00,,,0.01,,2013-01-13 08:42:00,
2013-01-13 03:52:00,35.0,34.0,30.28,ENE,68,0.0,0.0,97,0.00,,,0.01,,2013-01-13 08:52:00,
2013-01-13 04:02:00,35.0,34.0,30.28,ENE,68,0.0,0.0,97,0.00,,,0.01,,2013-01-13 09:02:00,
2013-01-13 04:12:00,35.0,34.0,30.27,ENE,68,0.0,0.0,97,0.01,,,0.02,,2013-01-13 09:12:00,
2013-01-13 04:22:00,35.0,34.0,30.27,ENE,68,0.0,0.0,97,0.01,,,0.02,,2013-01-13 09:22:00,
2013-01-13 04:32:00,35.0,34.0,30.26,WNW,289,0.0,1.0,97,0.01,,,0.02,,2013-01-13 09:32:00,
2013-01-13 04:42:00,35.0,34.0,30.26,WNW,289,0.0,1.0,97,0.01,,,0.02,,2013-01-13 09:42:00,
2013-01-13 04:52:00,34.0,33.0,30.26,North,355,0.0,1.0,97,0.01,,,0.02,,2013-01-13 09:52:00,
2013-01-13 05:03:00,35.0,34.0,30.28,WNW,287,0.0,0.0,97,0.01,,,0.02,,2013-01-13 10:03:00,
2013-01-13 05:12:00,35.0,34.0,30.28,WNW,287,0.0,0.0,97,0.01,,,0.02,,2013-01-13 10:12:00,
2013-01-13 05:22:00,35.0,34.0,30.27,WSW,253,0.0,0.0,97,0.00,,,0.02,,2013-01-13 10:22:00,
2013-01-13 05:32:00,35.0,34.0,30.26,SSW,201,0.0,0.0,97,0.00,,,0.01,,2013-01-13 10:32:00,
2013-01-13 05:42:00,35.0,34.0,30.26,SSW,201,0.0,0.0,97,0.00,,,0.01,,2013-01-13 10:42:00,
2013-01-13 05:52:00,34.0,33.0,30.25,SSW,203,0.0,0.0,97,0.00,,,0.01,,2013-01-13 10:52:00,
2013-01-13 06:02:00,34.0,33.0,30.26,NW,316,0.0,0.0,97,0.00,,,0.01,,2013-01-13 11:02:00,
2013-01-13 06:12:00,34.0,33.0,30.26,NW,316,0.0,0.0,97,0.00,,,0.01,,2013-01-13 11:12:00,
2013-01-13 06:22:00,34.0,33.0,30.26,NW,316,0.0,0.0,97,0.00,,,0.01,,2013-01-13 11:22:00,
2013-01-13 06:33:00,34.0,33.0,30.26,NW,315,0.0,0.0,97,0.00,,,0.01,,2013-01-13 11:33:00,
2013-01-13 06:42:00,34.0,33.0,30.26,NW,315,0.0,0.0,97,0.00,,,0.01,,2013-01-13 11:42:00,
2013-01-13 06:52:00,34.0,33.0,30.26,NW,315,0.0,0.0,97,0.00,,,0.01,,2013-01-13 11:52:00,
2013-01-13 07:03:00,35.0,34.0,30.27,NW,314,0.0,0.0,97,0.00,,,0.01,,2013-01-13 12:03:00,
2013-01-13 07:12:00,35.0,34.0,30.27,NW,314,0.0,0.0,97,0.00,,,0.01,,2013-01-13 12:12:00,
2013-01-13 07:22:00,34.0,33.0,30.27,NW,315,0.0,0.0,97,0.00,,,0.01,,2013-01-13 12:22:00,
2013-01-13 07:33:00,35.0,34.0,30.28,WSW,257,0.0,0.0,97,0.00,,,0.01,,2013-01-13 12:33:00,
2013-01-13 07:42:00,35.0,34.0,30.28,WSW,257,0.0,0.0,97,0.00,,,0.01,,2013-01-13 12:42:00,
2013-01-13 07:52:00,34.0,33.0,30.29,NNE,25,0.0,0.0,97,0.00,,,0.01,,2013-01-13 12:52:00,
2013-01-13 08:03:00,34.0,33.0,30.28,NNE,25,0.0,0.0,97,0.00,,,0.01,,2013-01-13 13:03:00,
2013-01-13 08:12:00,34.0,33.0,30.28,NNE,25,0.0,0.0,97,0.00,,,0.01,,2013-01-13 13:12:00,
2013-01-13 08:22:00,35.0,34.0,30.29,WNW,296,0.0,0.0,97,0.00,,,0.01,,2013-01-13 13:22:00,
2013-01-13 08:33:00,35.0,34.0,30.29,WNW,297,0.0,0.0,97,0.00,,,0.01,,2013-01-13 13:33:00,
2013-01-13 08:42:00,35.0,34.0,30.29,WNW,297,0.0,0.0,97,0.00,,,0.01,,2013-01-13 13:42:00,
2013-01-13 08:53:00,35.0,34.0,30.29,WNW,297,0.0,0.0,97,0.00,,,0.01,,2013-01-13 13:53:00,
2013-01-13 09:03:00,35.0,34.0,30.29,WNW,297,0.0,0.0,97,0.00,,,0.01,,2013-01-13 14:03:00,
2013-01-13 09:13:00,35.0,34.0,30.29,WNW,297,0.0,0.0,97,0.00,,,0.01,,2013-01-13 14:13:00,
2013-01-13 09:22:00,35.0,34.0,30.29,WNW,297,0.0,0.0,97,0.00,,,0.01,,2013-01-13 14:22:00,
2013-01-13 09:33:00,36.0,35.0,30.30,WNW,297,0.0,0.0,97,0.00,,,0.01,,2013-01-13 14:33:00,
2013-01-13 09:43:00,36.0,35.0,30.30,WNW,297,0.0,0.0,97,0.00,,,0.01,,2013-01-13 14:43:00,
2013-01-13 09:52:00,36.0,35.0,30.29,WNW,297,0.0,0.0,97,0.00,,,0.01,,2013-01-13 14:52:00,
2013-01-13 10:03:00,36.0,35.0,30.29,WNW,297,0.0,0.0,97,0.00,,,0.01,,2013-01-13 15:03:00,
2013-01-13 10:13:00,36.0,35.0,30.29,WNW,297,0.0,0.0,97,0.00,,,0.01,,2013-01-13 15:13:00,
2013-01-13 10:23:00,37.0,36.0,30.29,WNW,297,0.0,0.0,97,0.00,,,0.01,,2013-01-13 15:23:00,
2013-01-13 10:33:00,38.0,37.0,30.29,WNW,297,0.0,0.0,97,0.00,,,0.01,,2013-01-13 15:33:00,
2013-01-13 10:43:00,38.0,37.0,30.29,WNW,297,0.0,0.0,97,0.00,,,0.01,,2013-01-13 15:43:00,
2013-01-13 10:52:00,38.0,37.0,30.29,WNW,297,0.0,0.0,97,0.00,,,0.01,,2013-01-13 15:52:00,
2013-01-13 11:03:00,39.0,38.0,30.28,NW,306,0.0,0.0,97,0.00,,,0.01,,2013-01-13 16:03:00,
2013-01-13 11:13:00,39.0,38.0,30.28,NW,306,0.0,0.0,97,0.00,,,0.01,,2013-01-13 16:13:00,
2013-01-13 11:23:00,40.0,39.0,30.28,SE,135,0.0,1.0,97,0.00,,,0.01,,2013-01-13 16:23:00,
2013-01-13 11:33:00,41.0,40.0,30.26,SSE,158,0.0,2.0,97,0.00,,,0.01,,2013-01-13 16:33:00,
2013-01-13 11:43:00,41.0,40.0,30.26,SSE,158,0.0,2.0,97,0.00,,,0.01,,2013-01-13 16:43:00,
2013-01-13 11:53:00,42.0,41.0,30.26,SSE,158,0.0,0.0,97,0.00,,,0.01,,2013-01-13 16:53:00,
2013-01-13 12:03:00,42.0,41.0,30.25,SSE,148,0.0,1.0,97,0.00,,,0.01,,2013-01-13 17:03:00,
2013-01-13 12:13:00,42.0,41.0,30.25,SSE,148,0.0,1.0,97,0.00,,,0.01,,2013-01-13 17:13:00,
2013-01-13 12:22:00,43.0,42.0,30.24,SSE,148,0.0,0.0,97,0.00,,,0.01,,2013-01-13 17:22:00,
2013-01-13 12:33:00,43.0,42.0,30.23,SSE,148,0.0,0.0,97,0.00,,,0.01,,2013-01-13 17:33:00,
2013-01-13 12:43:00,43.0,42.0,30.23,SSE,148,0.0,0.0,97,0.00,,,0.01,,2013-01-13 17:43:00,
2013-01-13 12:53:00,43.0,42.0,30.23,SSE,148,0.0,0.0,97,0.00,,,0.01,,2013-01-13 17:53:00,
2013-01-13 13:03:00,43.0,42.0,30.23,SSE,148,0.0,0.0,97,0.00,,,0.01,,2013-01-13 18:03:00,
2013-01-13 13:12:00,43.0,42.0,30.23,SSE,148,0.0,0.0,97,0.00,,,0.01,,2013-01-13 18:12:00,
2013-01-13 13:23:00,43.0,42.0,30.22,WSW,257,0.0,1.0,97,0.00,,,0.01,,2013-01-13 18:23:00,
2013-01-13 13:33:00,43.0,42.0,30.21,SE,131,0.0,1.0,97,0.00,,,0.01,,2013-01-13 18:33:00,
2013-01-13 13:43:00,43.0,42.0,30.21,SE,131,0.0,1.0,97,0.00,,,0.01,,2013-01-13 18:43:00,
2013-01-13 13:53:00,44.0,43.0,30.21,ESE,120,0.0,2.0,97,0.00,,,0.01,,2013-01-13 18:53:00,
2013-01-13 14:03:00,44.0,43.0,30.21,North,6,0.0,1.0,97,0.00,,,0.01,,2013-01-13 19:03:00,
2013-01-13 14:12:00,44.0,43.0,30.21,North,6,0.0,1.0,97,0.00,,,0.01,,2013-01-13 19:12:00,
2013-01-13 14:23:00,44.0,43.0,30.20,SSE,163,0.0,5.0,97,0.00,,,0.01,,2013-01-13 19:23:00,
2013-01-13 14:33:00,44.0,43.0,30.21,NE,41,0.0,2.0,97,0.00,,,0.01,,2013-01-13 19:33:00,
2013-01-13 14:43:00,44.0,43.0,30.21,NE,41,0.0,2.0,97,0.00,,,0.01,,2013-01-13 19:43:00,
2013-01-13 14:53:00,44.0,43.0,30.20,East,93,0.0,3.0,97,0.00,,,0.01,,2013-01-13 19:53:00,
2013-01-13 15:03:00,44.0,43.0,30.19,ENE,68,0.0,1.0,97,0.00,,,0.01,,2013-01-13 20:03:00,
2013-01-13 15:12:00,44.0,43.0,30.19,ENE,68,0.0,1.0,97,0.00,,,0.01,,2013-01-13 20:12:00,
2013-01-13 15:22:00,44.0,43.0,30.19,East,82,0.0,1.0,97,0.00,,,0.01,,2013-01-13 20:22:00,
2013-01-13 15:33:00,44.0,43.0,30.19,ENE,75,1.0,2.0,97,0.00,,,0.01,,2013-01-13 20:33:00,
2013-01-13 15:43:00,44.0,43.0,30.19,ENE,75,1.0,2.0,97,0.00,,,0.01,,2013-01-13 20:43:00,
2013-01-13 15:53:00,42.0,41.0,30.17,ENE,65,1.0,2.0,96,0.00,,,0.01,,2013-01-13 20:53:00,
2013-01-13 16:03:00,43.0,42.0,30.18,NNE,32,1.0,2.0,97,0.00,,,0.01,,2013-01-13 21:03:00,
2013-01-13 16:13:00,43.0,42.0,30.18,NNE,32,1.0,2.0,97,0.00,,,0.01,,2013-01-13 21:13:00,
2013-01-13 16:23:00,43.0,42.0,30.17,SW,236,0.0,2.0,97,0.00,,,0.01,,2013-01-13 21:23:00,
2013-01-13 16:33:00,43.0,42.0,30.17,SE,134,0.0,3.0,97,0.00,,,0.01,,2013-01-13 21:33:00,
2013-01-13 16:43:00,43.0,42.0,30.17,SE,134,0.0,3.0,97,0.00,,,0.01,,2013-01-13 21:43:00,
2013-01-13 16:52:00,45.0,44.0,30.17,West,275,0.0,4.0,98,0.00,,,0.01,,2013-01-13 21:52:00,
2013-01-13 17:03:00,45.0,44.0,30.15,NE,53,1.0,8.0,98,0.00,,,0.01,,2013-01-13 22:03:00,
2013-01-13 17:13:00,45.0,44.0,30.15,NE,53,1.0,8.0,98,0.00,,,0.01,,2013-01-13 22:13:00,
2013-01-13 17:22:00,45.0,44.0,30.15,ESE,108,0.0,2.0,97,0.00,,,0.01,,2013-01-13 22:22:00,
2013-01-13 17:33:00,45.0,44.0,30.16,ENE,69,0.0,1.0,97,0.00,,,0.01,,2013-01-13 22:33:00,
2013-01-13 17:43:00,45.0,44.0,30.16,ENE,69,0.0,1.0,97,0.00,,,0.01,,2013-01-13 22:43:00,
2013-01-13 17:52:00,45.0,44.0,30.17,WNW,282,0.0,4.0,97,0.00,,,0.01,,2013-01-13 22:52:00,
2013-01-13 18:03:00,45.0,44.0,30.16,West,274,0.0,1.0,97,0.00,,,0.01,,2013-01-13 23:03:00,
2013-01-13 18:12:00,45.0,44.0,30.16,West,274,0.0,1.0,97,0.00,,,0.01,,2013-01-13 23:12:00,
2013-01-13 18:23:00,44.0,43.0,30.18,West,277,0.0,1.0,96,0.00,,,0.01,,2013-01-13 23:23:00,
2013-01-13 18:33:00,43.0,42.0,30.18,West,262,0.0,1.0,97,0.00,,,0.01,,2013-01-13 23:33:00,
2013-01-13 18:43:00,43.0,42.0,30.18,West,262,0.0,1.0,97,0.00,,,0.01,,2013-01-13 23:43:00,
2013-01-13 18:53:00,42.0,41.0,30.17,West,263,0.0,1.0,96,0.00,,,0.01,,2013-01-13 23:53:00,
2013-01-13 19:03:00,42.0,41.0,30.17,West,259,0.0,1.0,97,0.00,,,0.01,,2013-01-14 00:03:00,
2013-01-13 19:13:00,42.0,41.0,30.17,West,259,0.0,1.0,97,0.00,,,0.01,,2013-01-14 00:13:00,
2013-01-13 19:22:00,41.0,40.0,30.16,NE,56,1.0,2.0,96,0.00,,,0.01,,2013-01-14 00:22:00,
2013-01-13 19:33:00,42.0,41.0,30.16,SSE,150,0.0,3.0,97,0.00,,,0.01,,2013-01-14 00:33:00,
2013-01-13 19:43:00,42.0,41.0,30.16,SSE,150,0.0,3.0,97,0.00,,,0.01,,2013-01-14 00:43:00,
2013-01-13 19:52:00,43.0,42.0,30.18,NW,305,0.0,1.0,97,0.00,,,0.01,,2013-01-14 00:52:00,
2013-01-13 20:03:00,42.0,41.0,30.17,WSW,252,0.0,2.0,97,0.00,,,0.01,,2013-01-14 01:03:00,
2013-01-13 20:13:00,42.0,41.0,30.17,WSW,252,0.0,2.0,97,0.00,,,0.01,,2013-01-14 01:13:00,
2013-01-13 20:22:00,42.0,41.0,30.18,NE,49,0.0,2.0,97,0.00,,,0.01,,2013-01-14 01:22:00,
2013-01-13 20:33:00,40.0,39.0,30.16,NE,50,0.0,1.0,96,0.00,,,0.01,,2013-01-14 01:33:00,
2013-01-13 20:42:00,40.0,39.0,30.16,NE,50,0.0,1.0,96,0.00,,,0.01,,2013-01-14 01:42:00,
2013-01-13 20:52:00,41.0,40.0,30.16,West,267,0.0,1.0,97,0.00,,,0.01,,2013-01-14 01:52:00,
2013-01-13 21:03:00,39.0,38.0,30.16,WSW,250,0.0,1.0,96,0.00,,,0.01,,2013-01-14 02:03:00,
2013-01-13 21:12:00,39.0,38.0,30.16,WSW,250,0.0,1.0,96,0.00,,,0.01,,2013-01-14 02:12:00,
2013-01-13 21:22:00,40.0,39.0,30.15,WSW,249,0.0,1.0,97,0.00,,,0.01,,2013-01-14 02:22:00,
2013-01-13 21:33:00,38.0,37.0,30.14,WSW,250,0.0,1.0,97,0.00,,,0.01,,2013-01-14 02:33:00,
2013-01-13 21:42:00,38.0,37.0,30.14,WSW,250,0.0,1.0,97,0.00,,,0.01,,2013-01-14 02:42:00,
2013-01-13 21:53:00,38.0,37.0,30.13,NE,54,0.0,1.0,96,0.00,,,0.01,,2013-01-14 02:53:00,
2013-01-13 22:03:00,38.0,37.0,30.14,NE,53,0.0,0.0,97,0.00,,,0.01,,2013-01-14 03:03:00,
2013-01-13 22:12:00,38.0,37.0,30.14,NE,53,0.0,0.0,97,0.00,,,0.01,,2013-01-14 03:12:00,
2013-01-13 22:22:00,38.0,37.0,30.14,NE,53,0.0,0.0,97,0.00,,,0.01,,2013-01-14 03:22:00,
2013-01-13 22:33:00,38.0,37.0,30.14,NE,54,0.0,1.0,97,0.00,,,0.01,,2013-01-14 03:33:00,
2013-01-13 22:43:00,38.0,37.0,30.14,NE,54,0.0,1.0,97,0.00,,,0.01,,2013-01-14 03:43:00,
2013-01-13 22:53:00,38.0,37.0,30.15,NE,52,0.0,1.0,97,0.00,,,0.01,,2013-01-14 03:53:00,
2013-01-13 23:03:00,38.0,37.0,30.15,NE,53,0.0,1.0,97,0.00,,,0.01,,2013-01-14 04:03:00,
2013-01-13 23:12:00,38.0,37.0,30.15,NE,53,0.0,1.0,97,0.00,,,0.01,,2013-01-14 04:12:00,
2013-01-13 23:22:00,39.0,38.0,30.14,NE,54,0.0,1.0,97,0.00,,,0.01,,2013-01-14 04:22:00,
2013-01-13 23:32:00,39.0,38.0,30.14,NE,54,0.0,1.0,97,0.00,,,0.01,,2013-01-14 04:32:00,
2013-01-13 23:42:00,39.0,38.0,30.14,NE,54,0.0,1.0,97,0.00,,,0.01,,2013-01-14 04:42:00,
2013-01-13 23:52:00,39.0,38.0,30.14,NE,54,0.0,1.0,97,0.00,,,0.01,,2013-01-14 04:52:00,